Probability
0 0 0 0 0 0 0 0 0 0 1 1 1 0 0 0 0 0 0 0 0 0 0 0 0 0 0 0 0 0 0 0 0 0 0 0 0 0 0 0 0 0 0
0 0 0 0 0 0 0 0 0 0 1 2 1 0 0 0 0 0 0 0 0 0 0 1 1 0 0 0 0 0 0 0 0 0 0 0 0 0 0 0 0 0 0
0 0 0 0 0 0 0 0 0 0 1 1 1 0 0 0 0 0 0 0 0 0 1 2 3 2 0 0 0 0 0 0 0 0 0 0 0 0 0 0 0 0 0
0 0 0 0 0 0 0 0 0 0 0 0 0 0 0 0 0 0 0 0 0 0 1 2 4 3 2 1 0 0 0 0 0 0 0 0 0 0 0 0 0 0 0
0 0 0 0 0 0 0 0 0 0 0 0 0 0 0 0 0 0 0 0 0 0 0 1 2 3 3 2 1 0 0 0 0 0 0 0 0 0 0 0 0 0 0
0 0 0 0 0 0 0 0 0 0 0 0 0 0 0 0 0 0 0 0 0 0 0 0 0 1 2 2 1 0 0 0 0 0 0 0 0 0 0 0 0 0 0
0 0 0 0 0 0 0 0 0 0 0 0 0 0 0 0 0 0 0 0 0 0 0 0 0 0 0 1 1 0 0 0 0 0 0 0 0 0 0 0 0 0 0
0 0 0 0 0 0 0 0 0 0 0 0 0 0 0 0 0 0 0 0 0 0 0 0 0 0 0 0 0 0 0 0 0 0 0 0 0 0 0 0 0 0 0
0 0 0 0 0 0 0 0 0 0 0 0 0 0 0 0 0 0 0 0 0 0 0 0 0 0 0 0 0 0 0 0 0 0 0 0 0 0 0 0 0 0 0
0 0 0 0 0 0 0 0 0 0 0 0 0 0 0 0 0 0 0 0 0 0 0 0 0 0 0 0 0 0 0 0 0 0 0 0 0 0 0 0 0 0 0
0 0 0 0 0 0 0 0 0 0 0 0 0 0 0 0 0 0 0 0 0 0 0 0 0 0 0 0 0 0 0 0 0 0 0 0 0 0 0 0 0 0 0
0 0 0 0 0 0 0 0 0 0 0 0 0 0 0 0 0 0 0 0 0 0 0 0 0 0 0 0 0 0 0 0 0 0 0 0 0 0 0 0 0 0 0
0 0 0 0 0 0 0 0 0 0 0 0 0 0 0 0 0 0 0 0 0 0 0 0 0 0 0 0 0 0 0 0 0 0 0 0 0 0 0 0 0 0 0
0 0 0 0 0 0 0 0 0 0 0 0 0 0 0 0 0 0 0 0 0 0 0 0 0 0 0 0 0 0 0 0 0 0 0 0 0 0 0 0 0 0 0
0 0 0 0 0 0 0 0 0 0 0 0 0 0 0 0 0 0 0 0 0 0 0 0 0 0 0 0 0 0 0 0 0 0 0 0 0 0 0 0 0 0 0
0 0 0 0 0 0 0 0 0 0 0 0 0 0 0 0 0 0 0 0 0 0 0 0 0 0 0 0 0 0 0 0 0 0 0 0 0 0 0 0 0 0 0
0 0 0 0 0 0 0 0 0 0 0 0 0 0 0 0 0 0 0 0 0 0 0 0 0 0 0 0 0 0 0 0 0 0 0 0 0 0 0 0 0 0 0
0 0 0 0 0 0 0 0 0 0 0 0 0 0 0 0 0 0 0 0 0 0 0 0 0 0 0 0 0 0 0 0 0 0 0 0 0 0 0 0 0 0 0
0 0 0 0 0 0 0 0 0 0 0 0 0 0 0 0 0 0 0 0 0 0 0 0 0 0 0 0 0 0 0 0 0 0 0 0 0 0 0 0 0 0 0
0 0 0 0 0 0 0 0 0 0 0 0 0 0 0 0 0 0 0 0 0 0 0 0 0 0 0 0 0 0 0 0 0 0 0 0 0 0 0 0 0 0 0
0 0 0 0 0 0 0 0 0 0 0 0 0 0 0 0 0 0 0 0 0 0 0 0 0 0 0 0 0 0 0 0 0 0 0 0 0 0 0 0 0 0 0
0 0 0 0 0 0 0 0 0 0 0 0 0 0 0 0 0 0 0 0 0 0 0 0 0 0 0 0 0 0 0 0 0 0 0 0 0 0 0 0 0 0 0
0 0 0 0 0 0 0 0 0 0 0 0 0 0 0 0 0 0 0 0 0 0 0 0 0 0 0 0 0 0 0 0 0 0 0 0 0 0 0 0 0 0 0
0 0 0 0 0 0 0 0 0 0 0 0 0 0 0 0 0 0 0 0 0 0 0 0 0 0 0 0 0 0 0 0 0 0 0 0 0 0 0 0 0 0 0
0 0 0 0 0 0 0 0 0 0 0 0 0 0 0 0 0 0 0 0 0 0 0 0 0 0 0 0 0 0 0 0 0 0 0 0 0 0 0 0 0 0 0
0 0 0 0 0 0 0 0 0 0 0 0 0 0 0 0 0 0 0 0 0 0 0 0 0 0 0 0 0 0 0 0 0 0 0 0 0 0 0 0 0 0 0
Wind_Speed
2 2 2 2 2 2 2 2 2 2 2 3 3 3 3 3 3 3 3 7 8 9 10 10 11 10 10 10 10 9 9 9 9 9 9 8 8 8 8 8 8 8 8
1 1 2 2 2 2 2 2 2 2 2 2 2 3 3 3 3 3 3 4 7 8 9 10 11 11 11 11 10 10 10 9 9 9 9 8 8 8 8 8 8 8 8
2 1 2 2 2 2 2 1 2 1 1 1 2 2 2 3 3 3 3 3 3 6 8 9 10 11 12 12 11 11 10 10 9 9 9 9 8 8 8 8 8 8 7
2 1 1 2 2 2 1 1 1 1 1 1 1 2 1 2 3 3 3 3 2 2 4 7 9 10 11 12 12 12 11 11 10 10 9 9 9 8 8 8 8 8 7
2 1 2 2 2 1 1 1 0 1 1 1 2 1 1 1 2 2 2 3 3 2 2 4 7 8 10 11 12 12 12 12 11 10 10 10 9 8 8 8 8 7 7
2 2 2 2 2 1 1 1 1 0 1 1 1 1 1 1 1 1 2 1 2 2 2 2 3 4 8 10 11 12 13 13 12 12 11 10 10 9 9 8 8 8 8
3 2 1 2 1 1 1 1 1 0 0 0 1 1 1 1 0 0 1 1 1 2 2 3 3 2 3 8 10 11 13 13 13 13 12 12 11 10 9 9 9 8 8
3 2 1 1 1 1 1 1 0 0 0 0 1 1 1 2 1 1 0 1 1 1 2 3 3 3 3 2 5 9 11 12 13 13 12 12 11 11 10 10 9 9 9
3 2 2 1 1 1 1 1 1 1 1 0 0 2 2 1 1 1 1 0 1 1 1 2 3 3 4 3 3 7 9 10 12 13 13 12 12 12 11 11 10 9 9
4 3 2 2 1 1 1 1 1 1 2 1 0 0 1 1 1 1 1 1 0 1 1 2 2 3 3 3 4 6 8 8 10 12 13 12 12 12 12 11 10 10 9
4 3 3 2 1 1 1 1 0 1 1 2 1 1 1 1 0 1 1 1 1 1 1 2 2 2 3 3 3 5 7 8 9 10 12 12 12 12 12 11 11 11 10
3 4 3 2 2 1 1 1 1 1 1 2 2 1 2 1 1 1 1 1 1 1 1 1 1 2 2 3 4 6 7 8 8 8 9 10 11 12 12 12 12 12 12
3 4 3 3 2 2 1 1 0 1 1 2 2 2 2 2 2 1 1 1 1 1 1 1 1 1 2 2 3 6 7 8 8 8 8 8 9 9 11 12 12 12 12
3 4 4 3 3 2 1 1 0 1 1 1 2 2 1 1 2 2 2 2 1 0 1 1 1 1 1 1 3 5 4 7 8 8 8 8 8 8 9 10 11 12 11
3 4 3 3 3 2 2 1 0 0 0 1 1 1 1 1 1 1 2 2 2 1 1 1 1 1 1 1 2 3 4 6 8 8 8 8 7 8 8 9 8 9 9
3 4 4 3 3 3 2 1 0 0 0 0 1 1 1 1 1 1 1 1 2 2 1 1 2 1 1 2 2 2 3 5 6 7 7 8 8 8 8 8 8 8 8
4 4 4 3 3 3 2 1 1 1 0 0 0 1 1 1 0 0 1 1 1 2 2 1 1 1 1 2 1 1 2 2 3 6 7 7 7 8 8 9 8 8 8
4 3 3 3 3 3 2 1 1 1 0 0 0 0 0 0 0 0 1 1 1 2 2 2 1 0 1 2 1 1 1 2 2 4 5 6 7 7 8 8 8 9 9
4 4 3 3 3 3 2 2 1 1 0 0 0 0 1 1 1 1 1 1 1 1 1 2 1 0 1 1 1 1 1 1 1 2 4 5 6 7 7 8 8 9 9
3 4 3 3 3 3 2 2 1 1 1 1 0 1 1 2 2 2 1 2 1 1 1 1 1 1 1 1 1 1 1 1 1 1 2 3 5 6 7 8 9 9 9
3 3 3 4 4 3 2 1 1 0 1 1 1 1 1 1 2 2 2 2 2 1 1 1 1 1 1 1 2 1 2 1 1 2 2 2 2 3 4 6 8 9 9
3 3 4 4 4 3 5 4 1 0 0 0 1 2 2 1 2 1 1 2 3 3 3 2 2 2 3 3 2 2 2 1 2 2 2 2 2 3 3 3 7 9 10
3 3 3 3 4 5 6 5 3 1 1 0 1 1 2 2 2 1 2 3 3 4 5 4 4 4 4 4 3 3 3 3 3 2 2 2 2 3 3 4 8 10 10
2 2 3 3 3 5 6 4 3 2 1 1 1 1 1 3 2 1 1 2 2 3 4 3 4 5 5 4 4 4 3 2 1 2 3 3 2 3 3 3 8 10 10
3 2 2 3 3 5 7 5 3 1 1 2 2 1 1 2 4 3 1 2 3 3 3 5 6 6 6 6 5 2 2 2 2 2 3 3 2 2 2 3 5 9 10
3 3 3 3 3 4 6 5 3 0 1 2 2 2 3 3 4 3 1 1 3 3 3 3 2 3 3 4 6 5 4 3 2 3 3 3 2 2 2 2 2 3 5
Wind_Direction
313 314 313 316 314 311 308 301 287 271 256 240 225 221 224 226 230 228 239 252 252 241 225 214 202 194 192 188 184 181 175 169 163 161 158 154 150 146 145 142 144 144 141
284 299 306 307 301 296 286 276 272 266 256 234 232 230 227 223 228 229 228 246 250 243 226 216 204 196 194 192 188 184 179 174 170 167 165 162 158 154 150 151 150 147 144
276 279 291 297 294 292 292 294 290 271 259 245 239 239 228 225 225 229 228 225 238 237 222 210 206 201 196 195 192 188 184 178 174 173 172 172 168 163 159 158 156 152 151
289 284 284 290 295 301 294 284 274 273 271 274 264 256 239 232 233 233 225 219 216 219 217 210 206 203 200 198 196 193 189 184 180 180 179 177 174 171 168 166 164 163 164
298 280 280 288 304 313 311 296 267 216 235 271 260 246 242 232 242 242 226 215 207 196 185 205 207 206 205 203 200 197 194 190 187 186 184 181 179 177 176 176 176 175 176
301 284 277 293 306 315 318 310 295 276 230 246 269 280 269 248 237 222 224 205 189 187 177 180 188 209 212 207 205 202 200 197 193 192 191 188 185 184 185 187 187 187 186
312 287 288 296 290 266 267 280 268 267 290 240 75 7 336 314 249 230 197 171 195 195 174 180 181 185 211 212 209 206 205 203 200 198 197 196 193 192 194 195 196 196 194
325 312 291 284 283 274 282 267 213 195 252 145 121 104 358 354 344 330 195 185 212 204 202 198 185 187 195 196 208 210 209 208 207 205 203 202 198 198 200 201 204 203 199
327 322 314 297 291 268 258 247 210 176 185 281 123 141 141 213 318 335 323 181 165 189 226 213 199 193 197 197 201 211 208 206 210 213 211 208 205 204 205 206 205 204 202
332 329 325 323 307 288 272 259 208 195 159 165 13 51 159 171 143 334 340 340 247 209 234 237 214 202 195 191 197 198 205 206 211 216 217 214 212 209 208 207 206 206 204
335 336 331 330 329 312 291 283 255 203 176 173 164 137 76 65 178 168 244 302 301 247 226 225 207 202 201 200 199 204 205 208 212 217 219 217 215 212 211 209 210 210 209
330 339 335 335 327 315 292 277 242 203 203 180 171 167 161 163 199 177 192 224 252 258 241 229 209 204 197 198 212 207 202 202 207 213 217 216 217 215 212 211 213 214 213
323 327 333 328 319 308 294 278 233 227 198 177 180 187 182 192 195 173 163 181 232 291 284 252 227 207 201 190 205 202 203 201 205 212 214 213 214 215 215 215 214 214 214
301 314 325 325 325 322 322 329 266 245 194 182 184 181 185 203 197 186 174 159 146 299 276 266 272 220 205 192 208 205 209 206 205 209 210 211 212 215 216 216 216 218 217
311 324 334 338 339 340 341 353 338 253 179 182 178 176 185 213 200 198 188 171 161 185 248 256 263 248 208 208 219 205 210 213 209 205 203 206 209 212 218 217 214 215 217
326 333 339 340 344 348 351 5 334 305 139 177 172 167 180 205 197 187 186 184 178 173 214 241 239 255 227 223 215 207 214 216 212 207 206 207 209 212 213 212 212 215 217
331 334 332 337 341 341 342 360 348 4 53 3 90 149 203 195 168 188 177 176 187 176 209 255 249 258 220 210 208 205 210 210 211 211 212 212 210 208 209 210 208 209 212
330 329 334 341 337 335 333 331 323 342 323 282 278 130 269 162 170 222 184 189 203 198 193 232 262 267 238 207 198 204 214 204 210 216 215 214 213 210 206 209 209 208 207
336 339 346 344 335 330 324 306 289 316 312 251 247 221 242 187 218 232 206 205 217 220 193 204 238 235 270 221 176 187 182 195 220 216 215 218 217 211 207 207 207 206 204
339 340 341 340 336 331 327 321 321 339 356 349 312 244 229 208 217 218 215 211 201 198 189 199 226 235 239 241 182 189 216 211 238 222 221 219 218 215 212 209 208 206 205
339 335 342 344 343 340 340 343 342 6 359 357 345 322 289 252 236 215 204 200 186 187 197 208 223 240 234 217 217 203 217 244 249 210 201 216 213 219 217 214 214 210 207
335 344 346 342 344 341 347 357 13 50 14 11 330 326 324 312 305 306 280 235 204 198 203 209 220 226 239 229 222 206 200 214 249 208 193 239 213 234 230 220 215 210 209
327 333 332 339 333 328 345 0 16 49 48 342 306 313 320 324 317 296 294 292 268 243 221 211 220 229 228 218 211 217 213 218 232 205 189 242 216 237 234 226 218 213 209
307 307 315 323 323 327 344 352 6 31 31 342 304 286 294 312 315 306 292 298 291 274 248 229 224 234 232 224 214 222 221 227 249 229 193 230 221 230 234 225 221 216 212
299 296 297 311 317 317 334 339 350 20 354 326 311 305 296 298 313 330 332 297 300 298 284 262 246 248 248 239 213 191 197 210 239 226 196 208 215 222 228 232 227 218 215
284 298 304 299 296 300 319 330 337 90 320 316 325 321 314 310 305 312 284 270 286 290 303 313 292 275 257 246 224 210 207 215 227 233 200 192 199 193 248 239 221 217 216